パンスターズ彗星

C/2014 OG392 ( PanSTARRS )

English version
Home page
Updated on June 15, 2021

---------------------------------------------------------------------

・ プロフィール

発見日 2014年7月28日
発見光度 21.5等
発見者 Pan-STARRS 1 telescope (Haleakala)

・ 軌道要素

Epoch 2021 Dec. 12.0 TT = JDT 2459560.5                                         
T 2021 Nov. 29.44391 TT                                 Rudenko                 
q   9.9694803            (2000.0)            P               Q                  
n   0.02302269     Peri.  254.09164     +0.76062682     -0.64316157             
a  12.2376668      Node   145.79350     +0.63934543     +0.71855136             
e   0.1853447      Incl.    9.03275     +0.11262446     +0.26462641             
P  42.8                                                                         
From 201 observations 2011 July 27-2020 Nov. 14, mean residual 0".2.            

・ 光度変化

        H = 10.8  G = 0.15

---------------------------------------------------------------------

軌道要素はM.P.E.C. 2020-W26に掲載されたものです。
光度グラフはComet for Windowsで作成したものです。

---------------------------------------------------------------------

Copyright(C) Seiichi Yoshida (comet@aerith.net). All rights reserved.